#timestamp,LO_Frequency,Hit,StdDev 
1664301615.2,286047000.5,N
1664301635.0,286047002.4,N
1664301635.9,286047002.4,N
1664301655.7,286047000.7,N
1664301675.6,286046999.4,N
1664301695.4,286047001.1,N
1664301715.3,286046999.8,N
1664301735.1,286047001.5,N
1664301755.8,286047001.4,N
1664301775.7,286047002.5,N
1664301795.6,286047002.1,N
1664301815.4,286047002.5,N
1664301835.3,286047002.3,N
1664301855.1,286047003.2,N
1664301856.0,286047003.2,N
1664301875.8,286047004.2,N
1664301895.7,286047003.4,N
1664301915.5,286047005.6,Y
1664301935.3,286047005.4,P
1664301955.2,286047005.6,N
1664301975.0,286047003.3,N
1664301975.9,286047003.3,N
1664301995.8,286047003.2,N
1664302015.6,286047003.5,N
1664302035.4,286047004.1,N
1664302055.3,286047003.7,N
1664302075.1,286047004.0,Y
1664302095.9,286046998.2,P
1664302115.7,286047002.4,N
1664302135.5,286046999.8,N
1664302155.4,286046999.8,N
1664302175.2,286047001.6,N
1664302195.0,286047002.2,N
1664302196.0,286047002.2,N
1664302215.8,286047002.7,N
1664302235.6,286047002.0,N
1664302255.5,286047000.3,N
1664302275.3,286047000.5,N
1664302295.1,286046998.2,N
1664302315.9,286046998.7,N
1664302335.7,286046999.0,N
1664302355.6,286046998.1,N
1664302375.4,286046999.4,N
1664302395.2,286046999.5,N
1664302415.1,286046999.5,N
1664302416.0,286046999.5,N
1664302435.8,286046999.6,N
1664302455.7,286046998.3,N
1664302475.5,286046998.8,N
1664302495.3,286046999.0,N
1664302515.2,286046996.5,N
1664302535.9,286046996.5,N
1664302555.8,286046997.6,N
1664302575.6,286046995.0,N
1664302595.4,286046995.0,N
1664302615.3,286046995.0,N
1664302635.1,286046995.5,N
1664302655.8,286046993.7,N
1664302675.7,286046993.8,N
1664302695.5,286046994.7,N
1664302715.4,286046994.8,N
1664302735.2,286046994.3,N
1664302755.0,286046994.0,N
1664302755.9,286046994.0,N
1664302775.8,286046993.8,N
1664302795.6,286046991.7,Y
1664302815.5,286046995.5,P
1664302835.3,286046995.1,P
1664302855.1,286046993.3,P
1664302875.9,286046996.4,N
1664302895.7,286046993.8,Y
1664302915.5,286046998.4,P
1664302935.4,286046998.3,N
1664302955.2,286046999.2,N
1664302975.1,286046998.9,N
1664302976.0,286046998.9,N
1664302995.8,286046999.6,N
1664303015.6,286046996.6,N
1664303035.5,286046999.4,N
1664303055.3,286046998.8,N
1664303075.1,286046996.8,N
1664303095.9,286046999.5,N
1664303115.7,286046999.5,N
1664303135.6,286046997.5,N
1664303155.4,286046997.5,N
1664303175.2,286046997.7,N
1664303195.1,286046994.9,Y
1664303196.0,286046994.9,P
1664303215.8,286046999.1,N
1664303235.7,286046998.3,N
1664303255.5,286047001.1,N
1664303275.3,286047000.7,N
1664303295.2,286047000.9,N
1664303315.9,286047000.1,N
1664303335.7,286047001.0,N
1664303355.6,286046998.2,N
1664303375.4,286046998.3,N
1664303395.2,286046998.4,N
1664303415.1,286046998.9,N
1664303416.0,286046998.9,N
1664303435.8,286046999.3,N
1664303455.7,286046997.0,N
1664303475.5,286046998.0,N
1664303495.3,286046995.2,Y
1664303515.2,286046995.9,P
1664303535.0,286046993.3,P
1664303535.9,286046993.3,N
1664303555.8,286046995.4,N
1664303575.6,286046995.8,N
1664303595.4,286046996.4,N
1664303615.3,286046995.2,N
1664303635.1,286046995.1,N
1664303655.8,286046995.4,N
1664303675.7,286046997.4,N
1664303695.5,286046997.3,N
1664303715.4,286046997.2,N
1664303735.2,286046994.9,Y
1664303755.0,286046998.1,P
1664303755.9,286046998.1,N
1664303775.8,286046999.4,N
1664303795.6,286046998.7,N
1664303815.4,286046998.4,N
1664303835.3,286046999.4,N
1664303855.1,286046998.2,N
1664303875.9,286046998.1,N
1664303895.7,286046998.1,N
1664303915.5,286046998.2,N
1664303935.4,286046996.5,Y
1664303955.2,286047000.4,P
1664303975.0,286047001.0,N
1664303975.9,286047001.0,N
1664303995.8,286047000.9,N
1664304015.6,286047000.6,N
1664304035.5,286047002.4,N
1664304055.3,286047000.9,N
1664304075.1,286047001.1,N
1664304095.9,286047001.2,N
1664304115.7,286047000.4,N
1664304135.5,286046998.2,N
1664304155.4,286046998.3,N
1664304175.2,286046998.5,N
1664304195.1,286046998.7,N
1664304196.0,286046998.7,N
1664304215.8,286047001.0,N
1664304235.6,286047000.5,N
1664304255.5,286047000.0,N
1664304275.3,286047000.1,N
1664304295.1,286047000.1,N
1664304315.9,286046998.2,N
1664304335.7,286047000.8,N
1664304355.6,286047000.9,N
1664304375.4,286047000.3,N
1664304395.2,286047000.3,N
1664304415.1,286047002.8,N
1664304416.0,286047002.8,N
1664304435.8,286046999.9,N
1664304455.6,286047000.4,N
1664304475.5,286046998.5,N
1664304495.3,286046998.5,N
1664304515.2,286046999.0,N
1664304535.0,286046998.8,N
1664304535.9,286046998.8,N
1664304555.7,286046999.5,N
1664304575.6,286046996.5,N
1664304595.4,286046998.9,N
1664304615.3,286046999.6,N
1664304635.1,286046998.2,N
1664304655.8,286046999.1,N
1664304675.7,286046998.5,N
1664304695.5,286047000.6,N
1664304715.4,286046998.4,N
1664304735.2,286047001.2,N
1664304755.0,286046998.1,N
1664304755.9,286046998.1,N
1664304775.8,286047000.6,N
1664304795.6,286047001.0,N
1664304815.5,286047000.4,N
1664304835.3,286047001.0,N
1664304855.1,286047011.9,Y
1664304875.9,286046998.7,P
1664304895.7,286046998.6,N
1664304915.5,286046999.2,N
1664304935.4,286046999.4,N
1664304955.2,286046997.2,Y
1664304975.1,286046999.6,P
1664304976.0,286046999.6,N
1664304995.8,286046999.5,N
1664305015.6,286046999.1,Y
1664305035.5,286047001.1,P
1664305055.3,286047000.5,N
1664305075.2,286046998.5,N
1664305095.9,286047000.3,N
1664305115.7,286046999.8,N
1664305135.6,286047000.2,N
1664305155.4,286047002.8,Y
1664305175.2,286046999.7,P
1664305195.1,286047001.7,P
1664305196.0,286047001.7,N
